Date String (YYYY-MM-DD hh:mm:ss) UTC,Instrument flags,Ambient pressure (hPa),Sample flow (lpm),Bypass flow (lpm),Sample temperature (°C),Ambient temperature (°C),ASC tube jacket temperature (°C),LED temperature (°C),Box temperature (°C),Sample RH (%),Span deviation,Mass concentration (μg/m³),Mass concentration (μg/m³),Mass concentration (μg/m³)
DateTimeUTC,F1_M11,P_M11,Q1_M11,Q2_M11,T1_M11,T2_M11,T3_M11,T4_M11,T5_M11,U1_M11,ZSPAN_M11,X0_M11,X2_M11,X1_M11
2022-04-06 13:00:00,,0826.5,5.01,0.00,21.4,21.0,00.0,30.7,23.0,05.2,0000.0,0007.28,0001.66,0000.77
2022-04-06 13:01:00,,0826.5,5.01,0.00,21.6,22.1,00.0,30.7,23.4,05.2,0000.0,0005.86,0001.58,0000.75
2022-04-06 13:02:00,,0826.6,4.99,0.00,21.8,23.1,00.0,30.8,23.7,05.1,0000.0,0005.73,0001.56,0000.74
2022-04-06 13:03:00,,0826.6,5.00,0.00,21.9,23.4,00.0,30.8,23.9,05.1,0000.0,0004.99,0001.51,0000.73
2022-04-06 13:04:00,,0826.6,5.01,0.00,21.9,22.8,00.0,30.8,23.7,05.0,0000.0,0004.44,0001.46,0000.72
2022-04-06 13:05:00,,0826.5,4.99,0.00,21.8,22.3,00.0,30.8,23.5,05.1,0000.0,0004.27,0001.44,0000.71
2022-04-06 13:06:00,,0826.5,4.99,0.00,21.8,21.9,00.0,30.8,23.3,05.0,0000.0,0003.99,0001.44,0000.69
2022-04-06 13:07:00,,0826.5,5.01,0.00,21.7,21.5,00.0,30.8,23.2,05.1,0000.0,0003.67,0001.39,0000.68
2022-04-06 13:08:00,,0826.5,5.00,0.00,21.6,21.2,00.0,30.8,23.1,05.2,0000.0,0003.75,0001.40,0000.67
2022-04-06 13:09:00,,0826.5,4.99,0.00,21.5,21.0,00.0,30.7,23.1,05.1,0000.0,0003.91,0001.40,0000.66
2022-04-06 13:10:00,,0826.6,5.00,0.00,21.5,20.8,00.0,30.7,22.9,05.2,0000.0,0004.18,0001.40,0000.65
2022-04-06 13:11:00,,0826.7,5.00,0.00,21.4,20.6,00.0,30.7,22.8,05.3,0000.0,0004.27,0001.38,0000.65
2022-04-06 13:12:00,,0826.7,5.00,0.00,21.4,20.5,00.0,30.6,22.8,05.3,0000.0,0004.35,0001.37,0000.64
2022-04-06 13:13:00,,0826.7,5.02,0.00,21.4,21.4,00.0,30.7,23.1,05.2,0000.0,0004.37,0001.38,0000.65
2022-04-06 13:14:00,,0826.8,4.99,0.00,21.6,22.6,00.0,30.7,23.5,05.2,0000.0,0005.89,0001.39,0000.64
2022-04-06 13:15:00,,0826.8,5.00,0.00,21.8,23.3,00.0,30.7,23.7,05.2,0000.0,0007.23,0001.42,0000.65
2022-04-06 13:16:00,,0826.7,5.01,0.00,21.8,22.9,00.0,30.8,23.7,05.2,0000.0,0007.41,0001.46,0000.65
2022-04-06 13:17:00,,0826.6,4.99,0.00,21.8,22.4,00.0,30.8,23.5,05.0,0000.0,0007.68,0001.41,0000.65
2022-04-06 13:18:00,,0826.7,5.00,0.00,21.7,21.9,00.0,30.8,23.3,04.9,0000.0,0008.00,0001.42,0000.65
2022-04-06 13:19:00,,0826.6,5.01,0.00,21.6,21.5,00.0,30.7,23.2,05.1,0000.0,0008.08,0001.48,0000.65
2022-04-06 13:20:00,,0826.7,4.99,0.00,21.6,21.2,00.0,30.7,23.1,05.1,0000.0,0008.06,0001.49,0000.65
2022-04-06 13:21:00,,0826.7,5.01,0.00,21.5,20.9,00.0,30.7,22.9,05.2,0000.0,0007.72,0001.46,0000.65
2022-04-06 13:22:00,,0826.7,5.00,0.00,21.4,20.7,00.0,30.7,22.8,05.2,0000.0,0008.07,0001.50,0000.64
2022-04-06 13:23:00,,0826.8,5.00,0.00,21.3,20.5,00.0,30.6,22.8,05.2,0000.0,0009.06,0001.53,0000.65
2022-04-06 13:24:00,,0827.0,4.99,0.00,21.3,20.6,00.0,30.6,22.8,05.2,0000.0,0009.06,0001.53,0000.64
2022-04-06 13:25:00,,0826.9,5.02,0.00,21.4,21.7,00.0,30.6,23.1,05.2,0000.0,0008.25,0001.55,0000.65
2022-04-06 13:26:00,,0826.8,4.99,0.00,21.6,22.8,00.0,30.7,23.5,05.2,0000.0,0007.59,0001.57,0000.65
2022-04-06 13:27:00,,0826.8,5.00,0.00,21.7,23.1,00.0,30.7,23.7,05.1,0000.0,0007.47,0001.56,0000.66
2022-04-06 13:28:00,,0826.9,5.01,0.00,21.7,22.7,00.0,30.7,23.5,05.1,0000.0,0007.03,0001.61,0000.67
2022-04-06 13:29:00,,0826.8,4.98,0.00,21.7,22.1,00.0,30.7,23.3,05.1,0000.0,0006.74,0001.70,0000.67
2022-04-06 13:30:00,,0827.0,5.01,0.00,21.6,21.7,00.0,30.7,23.1,05.0,0000.0,0007.37,0001.79,0000.68
2022-04-06 13:31:00,,0827.1,4.98,0.00,21.5,21.3,00.0,30.7,23.0,04.9,0000.0,0007.90,0001.75,0000.67
2022-04-06 13:32:00,,0827.2,5.00,0.00,21.4,20.9,00.0,30.6,22.9,04.9,0000.0,0008.19,0001.77,0000.67
2022-04-06 13:33:00,,0827.1,5.00,0.00,21.4,20.6,00.0,30.6,22.9,05.1,0000.0,0008.07,0001.81,0000.68
2022-04-06 13:34:00,,0827.1,5.00,0.00,21.3,20.4,00.0,30.6,22.8,05.2,0000.0,0006.21,0001.78,0000.67
2022-04-06 13:35:00,,0827.0,5.00,0.00,21.3,20.4,00.0,30.5,22.7,05.2,0000.0,0006.48,0001.82,0000.68
2022-04-06 13:36:00,,0826.9,5.01,0.00,21.3,21.3,00.0,30.6,23.0,05.2,0000.0,0006.88,0001.82,0000.69
2022-04-06 13:37:00,,0827.0,5.00,0.00,21.5,22.6,00.0,30.6,23.4,05.1,0000.0,0008.09,0001.81,0000.69
2022-04-06 13:38:00,,0826.9,5.00,0.00,21.7,23.2,00.0,30.6,23.7,05.0,0000.0,0008.14,0001.81,0000.70
2022-04-06 13:39:00,,0826.9,4.99,0.00,21.7,22.7,00.0,30.7,23.5,05.0,0000.0,0008.29,0001.81,0000.69
2022-04-06 13:40:00,,0826.9,5.00,0.00,21.6,22.2,00.0,30.6,23.3,05.0,0000.0,0008.45,0001.75,0000.69
2022-04-06 13:41:00,,0827.0,5.00,0.00,21.6,21.7,00.0,30.6,23.1,05.0,0000.0,0008.14,0001.58,0000.69
2022-04-06 13:42:00,,0827.0,5.01,0.00,21.5,21.3,00.0,30.6,23.1,05.1,0000.0,0007.60,0001.59,0000.70
2022-04-06 13:43:00,,0827.2,4.99,0.00,21.5,21.0,00.0,30.6,23.0,05.1,0000.0,0007.38,0001.62,0000.70
2022-04-06 13:44:00,,0827.2,5.00,0.00,21.4,20.8,00.0,30.6,22.9,05.1,0000.0,0007.29,0001.54,0000.70
2022-04-06 13:45:00,,0827.3,4.99,0.00,21.4,20.5,00.0,30.5,22.8,05.0,0000.0,0007.21,0001.51,0000.69
2022-04-06 13:46:00,,0827.1,5.00,0.00,21.3,20.4,00.0,30.5,22.7,05.1,0000.0,0006.85,0001.44,0000.69
2022-04-06 13:47:00,,0827.5,5.01,0.00,21.3,21.1,00.0,30.5,22.9,05.1,0000.0,0006.50,0001.43,0000.67
2022-04-06 13:48:00,,0827.1,5.01,0.00,21.5,22.4,00.0,30.6,23.3,04.9,0000.0,0004.85,0001.39,0000.66
2022-04-06 13:49:00,,0827.0,4.99,0.00,21.7,23.2,00.0,30.6,23.7,04.9,0000.0,0005.05,0001.39,0000.65
2022-04-06 13:50:00,,0827.0,4.99,0.00,21.8,22.8,00.0,30.6,23.6,04.9,0000.0,0005.67,0001.35,0000.66
2022-04-06 13:51:00,,0827.0,5.00,0.00,21.7,22.3,00.0,30.6,23.4,04.9,0000.0,0005.00,0001.35,0000.67
2022-04-06 13:52:00,,0827.1,5.02,0.00,21.7,21.9,00.0,30.6,23.3,04.9,0000.0,0004.83,0001.39,0000.67
2022-04-06 13:53:00,,0827.1,4.99,0.00,21.6,21.5,00.0,30.6,23.2,05.0,0000.0,0004.75,0001.36,0000.66
2022-04-06 13:54:00,,0827.1,5.01,0.00,21.6,21.2,00.0,30.6,23.1,05.0,0000.0,0004.53,0001.29,0000.66
2022-04-06 13:55:00,,0827.2,4.98,0.00,21.5,20.9,00.0,30.6,23.0,04.9,0000.0,0004.45,0001.27,0000.66
2022-04-06 13:56:00,,0827.2,5.00,0.00,21.4,20.7,00.0,30.6,22.9,05.0,0000.0,0004.52,0001.31,0000.66
2022-04-06 13:57:00,,0827.1,5.01,0.00,21.3,20.6,00.0,30.5,22.8,05.1,0000.0,0004.70,0001.36,0000.66
2022-04-06 13:58:00,,0827.0,5.00,0.00,21.3,21.1,00.0,30.5,22.9,05.1,0000.0,0004.50,0001.34,0000.67
2022-04-06 13:59:00,,0827.1,5.01,0.00,21.5,22.3,00.0,30.6,23.3,04.9,0000.0,0004.43,0001.37,0000.67
